Regional Weather Roundup
Issued by NWS Cleveland, OH

Home | Current Version | Previous Version | Text Only | Print | Product List | Glossary Off
Versions: 1 2 3 4 5 6 7 8 9 10 11 12 13 14 15 16 17 18 19 20 21 22 23 24 25 26 27 28 29 30 31 32 33 34 35 36 37 38 39 40 41 42 43 44 45 46 47 48 49 50

000
ASUS41 KCLE 202200
RWRCLE
OHIO REGIONAL WEATHER ROUNDUP
NATIONAL WEATHER SERVICE WILMINGTON, OH
600 PM EDT SUN AUG 20 2017

NOTE: "FAIR" INDICATES FEW OR NO CLOUDS BELOW 12,000 FEET WITH NO
SIGNIFICANT WEATHER AND/OR OBSTRUCTIONS TO VISIBILITY.

OHZ001>008-015>018-024>027-034-035-043-044-202300-
   NORTHWEST OHIO

CITY           SKY/WX    TMP DP  RH WIND       PRES   REMARKS
DEFIANCE       FAIR      85  63  47 SW3       30.04S
FINDLAY        FAIR      85  67  54 SE6       30.03F
TOLEDO EXPRESS FAIR      83  66  56 CALM      30.04F
TOLEDO EXEC    FAIR      83  66  56 S5        30.05F
LIMA           CLOUDY    84  69  60 S3        30.05S
$$

OHZ009>014-019>023-028>033-038-089-202300-
   NORTHEAST OHIO

CITY           SKY/WX    TMP DP  RH WIND       PRES   REMARKS
CLE-HOPKINS    FAIR      87  61  41 NE7       30.09S
CLE-LAKEFRONT  FAIR      78  66  66 NE10      30.06F
CUY CO. ARPT   MOSUNNY   84  66  54 NE9       30.09S
LORAIN-ELYRIA    N/A    N/A N/A N/A MISG      30.08R
ASHTABULA      FAIR      81  58  45 SE6       30.11F
AKRON-CANTON   FAIR      84  59  42 S8        30.10F
WOOSTER        NOT AVBL
MANSFIELD      PTSUNNY   84  68  58 S9G17     30.09S
YOUNGSTOWN     FAIR      83  58  42 S6        30.11F
$$

OHZ042-051>053-060>062-070>072-077>081-202300-
  SOUTHWEST OHIO

CITY           SKY/WX    TMP DP  RH WIND       PRES   REMARKS
CINC-COVINGTON FAIR      87  69  54 S10       30.06S HX  91
CINC-LUNKEN    PTSUNNY   88  71  57 S10       30.04S HX  94
HAMILTON       FAIR      89  66  46 VRB7      30.05S HX  91
DAYTON         NOT AVBL
WRIGHT-PAT AFB DRIZZLE   88  61  40 W9        30.05S
DAYTON GENERAL PTSUNNY   87  63  44 W8        30.05S
WILMINGTON     FAIR      86  69  56 S9        30.07R HX  90
$$

OHZ036-037-039>041-045>050-054>059-063>069-073>076-082>088-202300-
  CENTRAL AND SOUTHEAST OHIO

CITY           SKY/WX    TMP DP  RH WIND       PRES   REMARKS
COLUMBUS       FAIR      87  68  52 S9        30.05F HX  90
OSU AIRPORT    FAIR      85  68  56 S13       30.05F
BOLTON FIELD   SUNNY     86  70  58 S10G17    30.06F HX  90
RICKENBACK AFB NOT AVBL
NEWARK         FAIR      85  67  54 S7        30.06S
MARION         FAIR      84  68  58 S8        30.07R
LANCASTER      FAIR      87  69  54 S9        30.07S HX  91
ZANESVILLE     FAIR      85  67  54 SE7       30.08F
NEW PHILLY     FAIR      83  67  58 SE5       30.10F
$$




USA.gov is the U.S. government's official web portal to all federal, state and local government web resources and services.